Marietta, GA

8:55 PM EST on February 25, 2018 (GMT -0500)
Dobbins Air Force Base

Weather History for KMGE - January, 2014

Change the Weather History Date:

Saturday, January 25, 2014

  Actual Average Record
Temperature  
Mean Temperature 28 °F -  
Max Temperature 45 °F 49 °F 70 °F (2017)
Min Temperature 12 °F 32 °F 12 °F (2014)
Degree Days  
Heating Degree Days 36    
Moisture  
Dew Point 10 °F    
Average Humidity 47    
Maximum Humidity 70    
Minimum Humidity 26    
Precipitation  
Precipitation 0.00 in - - ()
Sea Level Pressure  
Sea Level Pressure 30.03 in    
Wind  
Wind Speed 5 mph (WSW)    
Max Wind Speed 17 mph    
Max Gust Speed 33 mph    
Visibility 10 miles    
Events      
Averages and records for this station are not official NWS values.
T = Trace of Precipitation, MM = Missing Value Source: NWS Daily Summary

Daily Weather History Graph

Daily Weather History Graph

Search for Another Location

Airport or City:

Trip Planner

Search our weather history database for the weather conditions in past years. The results will help you decide how hot, cold, wet, or windy it might be!

Date:

Astronomy

Jan. 25, 2014 Rise Set
Actual Time 7:39 AM EST 6:01 PM EST
Civil Twilight 7:12 AM EST 6:28 PM EST
Nautical Twilight 6:42 AM EST 6:58 PM EST
Astronomical Twilight 6:12 AM EST 7:28 PM EST
Moon 2:11 AM EST (1/25) 1:01 PM EST (1/25)
Length of Visible Light 11h 15m
Length of Day
10h 22m
Waning Crescent, 34% of the Moon is Illuminated
Jan 25
Waning Crescent
Jan 30
New
Feb 6
First Quarter
Feb 14
Full
Feb 22
Last Quarter

Hourly Weather History & Observations

Time (EST) Temp. Windchill Dew Point Humidity Pressure Visibility Wind Dir Wind Speed Gust Speed Precip Events Conditions
12:58 AM 17.1 °F - 3.2 °F 55% 30.27 in 10.0 mi Calm Calm - N/A   Clear
1:58 AM 16.0 °F - 2.1 °F 54% 30.22 in 10.0 mi Calm Calm - N/A   Clear
2:58 AM 14.7 °F - 2.7 °F 59% 30.20 in 10.0 mi Calm Calm - N/A   Clear
3:58 AM 12.2 °F - 3.2 °F 67% 30.18 in 10.0 mi Calm Calm - N/A   Clear
4:58 AM 12.7 °F - 3.2 °F 66% 30.14 in 10.0 mi Calm Calm - N/A   Clear
5:58 AM 14.4 °F - 6.1 °F 70% 30.11 in 10.0 mi Calm Calm - N/A   Clear
6:58 AM 17.8 °F - 4.3 °F 56% 30.11 in 10.0 mi Calm Calm - N/A   Scattered Clouds
7:56 AM 19.6 °F - 7.2 °F 59% 30.10 in 10.0 mi SSE 2.3 mph - N/A   Mostly Cloudy
8:58 AM 23.0 °F 17.0 °F 8.6 °F 54% 30.05 in 10.0 mi Variable 4.6 mph - N/A   Mostly Cloudy
9:58 AM 28.9 °F 19.8 °F 13.6 °F 53% 30.01 in 10.0 mi WSW 10.4 mph - N/A   Mostly Cloudy
10:58 AM 36.0 °F 27.1 °F 9.3 °F 33% 29.99 in 10.0 mi SW 13.8 mph 19.6 mph N/A   Mostly Cloudy
11:58 AM 38.7 °F 29.8 °F 9.9 °F 31% 29.94 in 10.0 mi WSW 16.1 mph 25.3 mph N/A   Mostly Cloudy
12:58 PM 41.4 °F 34.7 °F 11.5 °F 30% 29.92 in 10.0 mi West 11.5 mph 25.3 mph N/A   Mostly Cloudy
1:58 PM 42.6 °F 34.6 °F 9.3 °F 26% 29.89 in 10.0 mi West 17.3 mph 33.4 mph N/A   Overcast
2:58 PM 44.6 °F 37.4 °F 10.9 °F 26% 29.88 in 10.0 mi West 16.1 mph 24.2 mph N/A   Mostly Cloudy
3:58 PM 45.0 °F 37.9 °F 12.7 °F 27% 29.88 in 10.0 mi West 16.1 mph - N/A   Mostly Cloudy
4:58 PM 43.3 °F 35.5 °F 14.4 °F 31% 29.91 in 5.0 mi West 17.3 mph - N/A   Smoke
5:58 PM 41.2 °F 33.7 °F 14.5 °F 34% 29.94 in 6.0 mi West 13.8 mph - N/A   Smoke
6:58 PM 35.6 °F 29.9 °F 13.6 °F 41% 29.98 in 10.0 mi West 6.9 mph - N/A   Clear
7:58 PM 34.2 °F 30.0 °F 14.5 °F 45% 29.99 in 10.0 mi SW 4.6 mph - N/A   Clear
8:58 PM 34.7 °F 29.6 °F 15.6 °F 46% 29.99 in 10.0 mi WSW 5.8 mph - N/A   Clear
9:58 PM 33.4 °F 28.1 °F 16.2 °F 49% 29.99 in 10.0 mi WSW 5.8 mph - N/A   Partly Cloudy
10:58 PM 30.6 °F 24.7 °F 16.7 °F 56% 29.99 in 10.0 mi WSW 5.8 mph - N/A   Clear
11:55 PM 28.4 °F 22.2 °F 17.2 °F 63% 29.99 in 10.0 mi West 5.8 mph - N/A   Clear